Location: Hemaruka
(51.7801°N, 111.0917°W)
Time: 23:04:40
(UTC+00:00)

MOZHAYETS 4 - Pass Details

Date: 13 December 2023
Orbit: 654 x 672 km, 98.3° (Epoch: 01 March)

Event Time Altitude Azimuth Distance (km) Brightness Sun altitude
Rises 23:51:11 0° 12° (NNE) 3,039 10.7 -5.6°
Reaches altitude 10° 23:53:27 10° 11° (N) 2,120 9.9 -5.9°
Maximum altitude 23:58:03 69° 288° (WNW) 727 8.1 -6.5°
Drops below altitude 10° 00:02:37 10° 206° (SSW) 2,101 11.2 -7.1°
Sets 00:04:50 0° 204° (SSW) 3,009 12.0 -7.4°
